User: anonymous   Login
Location: Erp
(42.9417°N, 1.2009°E)
Time: 11:38:01
(UTC+00:00)
Language:

Cosmos 676 Rocket - Orbit

View from above orbital plane
View from above orbital plane
View from above satellite
View from above satellite

Ground track
Ground track

The orbit is defined by the following mean orbital elements,

1 07434U          26071.19862795 +.00000000 +00000-0 +10303-3 0 00004
2 07434  74.0442 111.6804 0021391 311.3120  48.6192 14.38189568    02
Epoch (UTC): 12 March 2026 04:46:01
Eccentricity: 0.0021391
inclination: 74.0442°
perigee height: 749 km
apogee height: 780 km
right ascension of ascending node: 111.6804°
argument of perigee: 311.3120°
revolutions per day: 14.38189568
mean anomaly at epoch: 48.6192°

The dashed part of the orbit path shows where the satellite is in the earth's shadow,  

DLR